Cherry Point, NC

10:27 AM EDT on September 22, 2017 (GMT -0400)
Cherry Point Marine Corps Air Station

Weather History for KNKT - April, 2013

Change the Weather History Date:

Sunday, April 7, 2013

  Actual Average Record
Temperature  
Mean Temperature 56 °F -  
Max Temperature 70 °F 69 °F 86 °F (2001)
Min Temperature 41 °F 48 °F 32 °F (2007)
Degree Days  
Heating Degree Days 10    
Growing Degree Days 6 (Base 50)    
Moisture  
Dew Point 45 °F    
Average Humidity 69    
Maximum Humidity 90    
Minimum Humidity 40    
Precipitation  
Precipitation 0.00 in - - ()
Sea Level Pressure  
Sea Level Pressure 30.23 in    
Wind  
Wind Speed 4 mph ()    
Max Wind Speed 13 mph    
Max Gust Speed 18 mph    
Visibility 9.8 miles    
Events Fog    
Averages and records for this station are not official NWS values.
T = Trace of Precipitation, MM = Missing Value Source: Averaged Metar Reports

Daily Weather History Graph

Daily Weather History Graph

Search for Another Location

Airport or City:

Trip Planner

Search our weather history database for the weather conditions in past years. The results will help you decide how hot, cold, wet, or windy it might be!

Date:

Astronomy

Apr. 07, 2013 Rise Set
Actual Time 6:45 AM EDT 7:33 PM EDT
Civil Twilight 6:20 AM EDT 7:59 PM EDT
Nautical Twilight 5:49 AM EDT 8:29 PM EDT
Astronomical Twilight 5:18 AM EDT 9:01 PM EDT
Moon 4:56 AM EDT (4/7) 5:08 PM EDT (4/7)
Length of Visible Light 13h 39m
Length of Day
12h 47m
Waning Crescent, 8% of the Moon is Illuminated
Apr 7
Waning Crescent
Apr 10
New
Apr 18
First Quarter
Apr 25
Full
May 2
Last Quarter

Hourly Weather History & Observations

Time (EDT) Temp. Windchill Dew Point Humidity Pressure Visibility Wind Dir Wind Speed Gust Speed Precip Events Conditions
12:54 AM 45.0 °F 43.5 °F 39.9 °F 82% 30.29 in 10.0 mi NNE 3.5 mph - N/A   Partly Cloudy
2:54 AM 43.0 °F 39.5 °F 39.9 °F 89% 30.25 in 10.0 mi NE 5.8 mph - N/A   Clear
3:54 AM 43.0 °F - 39.9 °F 89% 30.24 in 9.0 mi Calm Calm - N/A   Clear
4:54 AM 42.1 °F - 37.9 °F 85% 30.24 in 9.0 mi Calm Calm - N/A   Clear
5:54 AM 43.0 °F 41.3 °F 39.9 °F 89% 30.25 in 10.0 mi North 3.5 mph - N/A   Clear
6:54 AM 41.0 °F - 37.9 °F 89% 30.27 in 10.0 mi Calm Calm - N/A Fog Shallow Fog
7:54 AM 45.0 °F - 42.1 °F 90% 30.27 in 9.0 mi Calm Calm - N/A Fog Shallow Fog
8:54 AM 53.1 °F - 46.9 °F 80% 30.28 in 10.0 mi Variable 3.5 mph - N/A   Clear
9:54 AM 60.1 °F - 48.0 °F 64% 30.28 in 10.0 mi ESE 3.5 mph - N/A   Clear
10:54 AM 64.0 °F - 46.9 °F 54% 30.29 in 10.0 mi West 4.6 mph - N/A   Partly Cloudy
11:54 AM 66.9 °F - 42.1 °F 40% 30.28 in 10.0 mi Variable 5.8 mph - N/A   Partly Cloudy
12:54 PM 68.0 °F - 45.0 °F 43% 30.25 in 8.0 mi SSW 8.1 mph - N/A   Partly Cloudy
1:54 PM 69.1 °F - 44.1 °F 40% 30.22 in 10.0 mi Variable 5.8 mph - N/A   Partly Cloudy
2:54 PM 70.0 °F - 46.0 °F 42% 30.20 in 10.0 mi SW 11.5 mph 17.3 mph N/A   Partly Cloudy
4:54 PM 68.0 °F - 46.0 °F 45% 30.18 in 10.0 mi South 12.7 mph 18.4 mph N/A   Scattered Clouds
5:54 PM 66.0 °F - 46.9 °F 50% 30.17 in 10.0 mi SSW 12.7 mph - N/A   Mostly Cloudy
6:54 PM 63.0 °F - 49.6 °F 62% 30.18 in 10.0 mi South 9.2 mph - N/A   Mostly Cloudy
7:54 PM 61.0 °F - 48.9 °F 64% 30.18 in 10.0 mi South 4.6 mph - N/A   Mostly Cloudy
8:54 PM 57.0 °F - 48.9 °F 74% 30.19 in 10.0 mi SE 4.6 mph - N/A   Clear
9:54 PM 57.0 °F - 50.0 °F 77% 30.21 in 10.0 mi SSE 3.5 mph - N/A   Mostly Cloudy
10:54 PM 54.0 °F - 48.9 °F 83% 30.20 in 10.0 mi SSE 3.5 mph - N/A   Mostly Cloudy
11:54 PM 57.0 °F - 50.0 °F 77% 30.19 in 10.0 mi South 4.6 mph - N/A   Mostly Cloudy